Tracking 23758 objects as of 27-Oct-2021
HD Live streaming from Space Station
objects crossing your sky now

IRIDIUM 33 DEB

Track IRIDIUM 33 DEB now!
10-day predictions


NORAD ID: 38470
Int'l Code: 1997-051ZX
Perigee: 690.2 km
Apogee: 832.0 km
Inclination: 86.5 °
Period: 99.9 minutes
Semi major axis: 7132 km
RCS: 0.0067 m2 (small)
Launch date: September 14, 1997
Source: United States (US)
Launch site: TYURATAM MISSILE AND SPACE COMPLEX (TTMTR)

Note: This is SATELLITE DEBRIS
aabbcc
Your satellite tracking list
Your tracking list is empty




NASA's NSSDC Master Catalog

Two Line Element Set (TLE):
1 38470U 97051ZX  21300.09985556  .00005037  00000-0  14611-2 0  9997
2 38470  86.4912  65.3891 0099473 278.9425  80.0525 14.41374829654418
Source of the keplerian elements: AFSPC